Year,Month,Day,Hour,Minute,Value (Times are PST for temperature in C)
2014,10,05,00,00,15.60
2014,10,05,00,01,15.60
2014,10,05,00,02,15.60
2014,10,05,00,03,15.60
2014,10,05,00,04,15.70
2014,10,05,00,05,15.70
2014,10,05,00,06,15.70
2014,10,05,00,07,15.70
2014,10,05,00,08,15.70
2014,10,05,00,09,15.70
2014,10,05,00,10,15.70
2014,10,05,00,11,15.70
2014,10,05,00,12,15.70
2014,10,05,00,13,15.70
2014,10,05,00,14,15.70
2014,10,05,00,15,15.70
2014,10,05,00,16,15.70
2014,10,05,00,17,15.70
2014,10,05,00,18,15.70
2014,10,05,00,19,15.70
2014,10,05,00,20,15.70
2014,10,05,00,21,15.80
2014,10,05,00,22,15.80
2014,10,05,00,23,15.80
2014,10,05,00,24,15.80
2014,10,05,00,25,15.80
2014,10,05,00,26,15.70
2014,10,05,00,27,15.70
2014,10,05,00,28,15.70
2014,10,05,00,29,15.70
2014,10,05,00,30,15.70
2014,10,05,00,31,15.70
2014,10,05,00,32,15.70
2014,10,05,00,33,15.70
2014,10,05,00,34,15.70
2014,10,05,00,35,15.70
2014,10,05,00,36,15.70
2014,10,05,00,37,15.60
2014,10,05,00,38,15.60
2014,10,05,00,39,15.60
2014,10,05,00,40,15.60
2014,10,05,00,41,15.60
2014,10,05,00,42,15.60
2014,10,05,00,43,15.60
2014,10,05,00,44,15.60
2014,10,05,00,45,15.60
2014,10,05,00,46,15.60
2014,10,05,00,47,15.60
2014,10,05,00,48,15.60
2014,10,05,00,49,15.60
2014,10,05,00,50,15.60
2014,10,05,00,51,15.60
2014,10,05,00,52,15.60
2014,10,05,00,53,15.60
2014,10,05,00,54,15.60
2014,10,05,00,55,15.60
2014,10,05,00,56,15.60
2014,10,05,00,57,15.60
2014,10,05,00,58,15.60
2014,10,05,00,59,15.60
2014,10,05,01,00,15.60
2014,10,05,01,01,15.60
2014,10,05,01,02,15.60
2014,10,05,01,03,15.60
2014,10,05,01,04,15.60
2014,10,05,01,05,15.60
2014,10,05,01,06,15.60
2014,10,05,01,07,15.60
2014,10,05,01,08,15.60
2014,10,05,01,09,15.60
2014,10,05,01,10,15.60
2014,10,05,01,11,15.60
2014,10,05,01,12,15.60
2014,10,05,01,13,15.60
2014,10,05,01,14,15.60
2014,10,05,01,15,15.60
2014,10,05,01,16,15.50
2014,10,05,01,17,15.50
2014,10,05,01,18,15.50
2014,10,05,01,19,15.50
2014,10,05,01,20,15.50
2014,10,05,01,21,15.50
2014,10,05,01,22,15.50
2014,10,05,01,23,15.50
2014,10,05,01,24,15.50
2014,10,05,01,25,15.50
2014,10,05,01,26,15.50
2014,10,05,01,27,15.50
2014,10,05,01,28,15.50
2014,10,05,01,29,15.50
2014,10,05,01,30,15.50
2014,10,05,01,31,15.50
2014,10,05,01,32,15.50
2014,10,05,01,33,15.50
2014,10,05,01,34,15.50
2014,10,05,01,35,15.60
2014,10,05,01,36,15.50
2014,10,05,01,37,15.60
2014,10,05,01,38,15.60
2014,10,05,01,39,15.60
2014,10,05,01,40,15.60
2014,10,05,01,41,15.60
2014,10,05,01,42,15.60
2014,10,05,01,43,15.60
2014,10,05,01,44,15.60
2014,10,05,01,45,15.60
2014,10,05,01,46,15.60
2014,10,05,01,47,15.60
2014,10,05,01,48,15.60
2014,10,05,01,49,15.60
2014,10,05,01,50,15.60
2014,10,05,01,51,15.60
2014,10,05,01,52,15.60
2014,10,05,01,53,15.60
2014,10,05,01,54,15.70
2014,10,05,01,55,15.70
2014,10,05,01,56,15.70
2014,10,05,01,57,15.70
2014,10,05,01,58,15.70
2014,10,05,01,59,15.70
2014,10,05,02,00,15.70
2014,10,05,02,01,15.70
2014,10,05,02,02,15.70
2014,10,05,02,03,15.70
2014,10,05,02,04,15.70
2014,10,05,02,05,15.80
2014,10,05,02,06,15.80
2014,10,05,02,07,15.80
2014,10,05,02,08,15.80
2014,10,05,02,09,15.80
2014,10,05,02,10,15.80
2014,10,05,02,11,15.80
2014,10,05,02,12,15.80
2014,10,05,02,13,15.80
2014,10,05,02,14,15.90
2014,10,05,02,15,15.90
2014,10,05,02,16,15.90
2014,10,05,02,17,15.90
2014,10,05,02,18,15.90
2014,10,05,02,19,15.90
2014,10,05,02,20,15.90
2014,10,05,02,21,16.00
2014,10,05,02,22,16.00
2014,10,05,02,23,16.00
2014,10,05,02,24,16.00
2014,10,05,02,25,16.00
2014,10,05,02,26,16.00
2014,10,05,02,27,16.00
2014,10,05,02,28,16.00
2014,10,05,02,29,16.00
2014,10,05,02,30,16.00
2014,10,05,02,31,16.00
2014,10,05,02,32,16.00
2014,10,05,02,33,16.00
2014,10,05,02,34,16.00
2014,10,05,02,35,16.00
2014,10,05,02,36,16.00
2014,10,05,02,37,16.00
2014,10,05,02,38,16.00
2014,10,05,02,39,16.00
2014,10,05,02,40,16.00
2014,10,05,02,41,15.90
2014,10,05,02,42,15.90
2014,10,05,02,43,15.90
2014,10,05,02,44,15.90
2014,10,05,02,45,15.90
2014,10,05,02,46,15.90
2014,10,05,02,47,15.90
2014,10,05,02,48,15.90
2014,10,05,02,49,15.80
2014,10,05,02,50,15.80
2014,10,05,02,51,15.80
2014,10,05,02,52,15.80
2014,10,05,02,53,15.80
2014,10,05,02,54,15.80
2014,10,05,02,55,15.80
2014,10,05,02,56,15.90
2014,10,05,02,57,15.90
2014,10,05,02,58,15.90
2014,10,05,02,59,15.90
2014,10,05,03,00,16.00
2014,10,05,03,01,16.00
2014,10,05,03,02,16.00
2014,10,05,03,03,16.00
2014,10,05,03,04,16.00
2014,10,05,03,05,16.00
2014,10,05,03,06,16.00
2014,10,05,03,07,16.00
2014,10,05,03,08,16.00
2014,10,05,03,09,16.00
2014,10,05,03,10,16.00
2014,10,05,03,11,16.00
2014,10,05,03,12,16.00
2014,10,05,03,13,16.00
2014,10,05,03,14,16.00
2014,10,05,03,15,16.00
2014,10,05,03,16,16.00
2014,10,05,03,17,16.00
2014,10,05,03,18,15.90
2014,10,05,03,19,15.90
2014,10,05,03,20,15.90
2014,10,05,03,21,15.90
2014,10,05,03,22,15.90
2014,10,05,03,23,15.90
2014,10,05,03,24,15.90
2014,10,05,03,25,15.90
2014,10,05,03,26,15.90
2014,10,05,03,27,15.90
2014,10,05,03,28,15.90
2014,10,05,03,29,15.90
2014,10,05,03,30,15.90
2014,10,05,03,31,15.90
2014,10,05,03,32,15.90
2014,10,05,03,33,15.90
2014,10,05,03,34,15.90
2014,10,05,03,35,15.80
2014,10,05,03,36,15.80
2014,10,05,03,37,15.80
2014,10,05,03,38,15.80
2014,10,05,03,39,15.80
2014,10,05,03,40,15.80
2014,10,05,03,41,15.80
2014,10,05,03,42,15.80
2014,10,05,03,43,15.80
2014,10,05,03,44,15.70
2014,10,05,03,45,15.70
2014,10,05,03,46,15.70
2014,10,05,03,47,15.70
2014,10,05,03,48,15.70
2014,10,05,03,49,15.70
2014,10,05,03,50,15.70
2014,10,05,03,51,15.70
2014,10,05,03,52,15.70
2014,10,05,03,53,15.60
2014,10,05,03,54,15.60
2014,10,05,03,55,15.60
2014,10,05,03,56,15.60
2014,10,05,03,57,15.60
2014,10,05,03,58,15.60
2014,10,05,03,59,15.60
2014,10,05,04,00,15.50
2014,10,05,04,01,15.50
2014,10,05,04,02,15.50
2014,10,05,04,03,15.40
2014,10,05,04,04,15.40
2014,10,05,04,05,15.40
2014,10,05,04,06,15.40
2014,10,05,04,07,15.40
2014,10,05,04,08,15.40
2014,10,05,04,09,15.30
2014,10,05,04,10,15.30
2014,10,05,04,11,15.30
2014,10,05,04,12,15.30
2014,10,05,04,13,15.30
2014,10,05,04,14,15.30
2014,10,05,04,15,15.30
2014,10,05,04,16,15.30
2014,10,05,04,17,15.30
2014,10,05,04,18,15.30
2014,10,05,04,19,15.20
2014,10,05,04,20,15.20
2014,10,05,04,21,15.20
2014,10,05,04,22,15.20
2014,10,05,04,23,15.20
2014,10,05,04,24,15.20
2014,10,05,04,25,15.20
2014,10,05,04,26,15.20
2014,10,05,04,27,15.20
2014,10,05,04,28,15.10
2014,10,05,04,29,15.10
2014,10,05,04,30,15.10
2014,10,05,04,31,15.10
2014,10,05,04,32,15.10
2014,10,05,04,33,15.10
2014,10,05,04,34,15.10
2014,10,05,04,35,15.10
2014,10,05,04,36,15.10
2014,10,05,04,37,15.10
2014,10,05,04,38,15.10
2014,10,05,04,39,15.10
2014,10,05,04,40,15.10
2014,10,05,04,41,15.10
2014,10,05,04,42,15.10
2014,10,05,04,43,15.10
2014,10,05,04,44,15.10
2014,10,05,04,45,15.10
2014,10,05,04,46,15.10
2014,10,05,04,47,15.10
2014,10,05,04,48,15.10
2014,10,05,04,49,15.10
2014,10,05,04,50,15.00
2014,10,05,04,51,15.00
2014,10,05,04,52,15.00
2014,10,05,04,53,15.00
2014,10,05,04,54,15.00
2014,10,05,04,55,15.00
2014,10,05,04,56,15.00
2014,10,05,04,57,15.00
2014,10,05,04,58,15.00
2014,10,05,04,59,15.00
2014,10,05,05,00,15.00
2014,10,05,05,01,15.00
2014,10,05,05,02,15.00
2014,10,05,05,03,15.00
2014,10,05,05,04,15.00
2014,10,05,05,05,15.00
2014,10,05,05,06,15.00
2014,10,05,05,07,15.00
2014,10,05,05,08,15.00
2014,10,05,05,09,15.00
2014,10,05,05,10,15.00
2014,10,05,05,11,15.00
2014,10,05,05,12,15.00
2014,10,05,05,13,15.00
2014,10,05,05,14,15.00
2014,10,05,05,15,15.00
2014,10,05,05,16,15.00
2014,10,05,05,17,15.00
2014,10,05,05,18,15.00
2014,10,05,05,19,15.00
2014,10,05,05,20,15.00
2014,10,05,05,21,15.00
2014,10,05,05,22,15.00
2014,10,05,05,23,15.00
2014,10,05,05,24,15.00
2014,10,05,05,25,15.00
2014,10,05,05,26,15.10
2014,10,05,05,27,15.10
2014,10,05,05,28,15.10
2014,10,05,05,29,15.10
2014,10,05,05,30,15.10
2014,10,05,05,31,15.20
2014,10,05,05,32,15.20
2014,10,05,05,33,15.20
2014,10,05,05,34,15.20
2014,10,05,05,35,15.20
2014,10,05,05,36,15.20
2014,10,05,05,37,15.20
2014,10,05,05,38,15.20
2014,10,05,05,39,15.30
2014,10,05,05,40,15.30
2014,10,05,05,41,15.30
2014,10,05,05,42,15.30
2014,10,05,05,43,15.30
2014,10,05,05,44,15.30
2014,10,05,05,45,15.30
2014,10,05,05,46,15.30
2014,10,05,05,47,15.30
2014,10,05,05,48,15.30
2014,10,05,05,49,15.30
2014,10,05,05,50,15.30
2014,10,05,05,51,15.30
2014,10,05,05,52,15.30
2014,10,05,05,53,15.30
2014,10,05,05,54,15.30
2014,10,05,05,55,15.30
2014,10,05,05,56,15.30
2014,10,05,05,57,15.30
2014,10,05,05,58,15.30
2014,10,05,05,59,15.30
2014,10,05,06,00,15.30
2014,10,05,06,01,15.30
2014,10,05,06,02,15.30
2014,10,05,06,03,15.30
2014,10,05,06,04,15.30
2014,10,05,06,05,15.20
2014,10,05,06,06,15.20
2014,10,05,06,07,15.20
2014,10,05,06,08,15.20
2014,10,05,06,09,15.20
2014,10,05,06,10,15.20
2014,10,05,06,11,15.20
2014,10,05,06,12,15.20
2014,10,05,06,13,15.20
2014,10,05,06,14,15.20
2014,10,05,06,15,15.20
2014,10,05,06,16,15.20
2014,10,05,06,17,15.20
2014,10,05,06,18,15.20
2014,10,05,06,19,15.20
2014,10,05,06,20,15.20
2014,10,05,06,21,15.20
2014,10,05,06,22,15.20
2014,10,05,06,23,15.20
2014,10,05,06,24,15.20
2014,10,05,06,25,15.20
2014,10,05,06,26,15.20
2014,10,05,06,27,15.20
2014,10,05,06,28,15.20
2014,10,05,06,29,15.20
2014,10,05,06,30,15.20
2014,10,05,06,31,15.20
2014,10,05,06,32,15.10
2014,10,05,06,33,15.10
2014,10,05,06,34,15.10
2014,10,05,06,35,15.10
2014,10,05,06,36,15.10
2014,10,05,06,37,15.10
2014,10,05,06,38,15.10
2014,10,05,06,39,15.10
2014,10,05,06,40,15.10
2014,10,05,06,41,15.00
2014,10,05,06,42,15.00
2014,10,05,06,43,15.00
2014,10,05,06,44,15.00
2014,10,05,06,45,15.00
2014,10,05,06,46,15.00
2014,10,05,06,47,15.00
2014,10,05,06,48,15.00
2014,10,05,06,49,15.00
2014,10,05,06,50,15.00
2014,10,05,06,51,15.00
2014,10,05,06,52,15.00
2014,10,05,06,53,15.00
2014,10,05,06,54,15.00
2014,10,05,06,55,15.00
2014,10,05,06,56,15.00
2014,10,05,06,57,15.00
2014,10,05,06,58,15.00
2014,10,05,06,59,15.00
2014,10,05,07,00,15.00
2014,10,05,07,01,15.00
2014,10,05,07,02,15.00
2014,10,05,07,03,15.00
2014,10,05,07,04,15.00
2014,10,05,07,05,15.00
2014,10,05,07,06,15.00
2014,10,05,07,07,15.00
2014,10,05,07,08,15.00
2014,10,05,07,09,15.00
2014,10,05,07,10,15.00
2014,10,05,07,11,15.00
2014,10,05,07,12,15.00
2014,10,05,07,13,15.00
2014,10,05,07,14,15.00
2014,10,05,07,15,15.00
2014,10,05,07,16,15.00
2014,10,05,07,17,15.00
2014,10,05,07,18,15.00
2014,10,05,07,19,15.00
2014,10,05,07,20,15.00
2014,10,05,07,21,15.00
2014,10,05,07,22,15.00
2014,10,05,07,23,15.00
2014,10,05,07,24,15.00
2014,10,05,07,25,15.00
2014,10,05,07,26,15.00
2014,10,05,07,27,15.00
2014,10,05,07,28,15.00
2014,10,05,07,29,15.00
2014,10,05,07,30,15.00
2014,10,05,07,31,15.00
2014,10,05,07,32,15.00
2014,10,05,07,33,15.00
2014,10,05,07,34,15.00
2014,10,05,07,35,15.00
2014,10,05,07,36,15.00
2014,10,05,07,37,15.00
2014,10,05,07,38,15.00
2014,10,05,07,39,15.00
2014,10,05,07,40,15.00
2014,10,05,07,41,15.00
2014,10,05,07,42,15.00
2014,10,05,07,43,15.00
2014,10,05,07,44,15.00
2014,10,05,07,45,15.00
2014,10,05,07,46,15.00
2014,10,05,07,47,15.00
2014,10,05,07,48,15.00
2014,10,05,07,49,15.00
2014,10,05,07,50,15.00
2014,10,05,07,51,15.00
2014,10,05,07,52,15.00
2014,10,05,07,53,15.00
2014,10,05,07,54,15.00
2014,10,05,07,55,15.00
2014,10,05,07,56,15.00
2014,10,05,07,57,15.00
2014,10,05,07,58,15.10
2014,10,05,07,59,15.00
2014,10,05,08,00,15.10
2014,10,05,08,01,15.10
2014,10,05,08,02,15.10
2014,10,05,08,03,15.10
2014,10,05,08,04,15.10
2014,10,05,08,05,15.10
2014,10,05,08,06,15.10
2014,10,05,08,07,15.20
2014,10,05,08,08,15.20
2014,10,05,08,09,15.20
2014,10,05,08,10,15.20
2014,10,05,08,11,15.20
2014,10,05,08,12,15.20
2014,10,05,08,13,15.20
2014,10,05,08,14,15.20
2014,10,05,08,15,15.20
2014,10,05,08,16,15.20
2014,10,05,08,17,15.30
2014,10,05,08,18,15.30
2014,10,05,08,19,15.30
2014,10,05,08,20,15.30
2014,10,05,08,21,15.30
2014,10,05,08,22,15.30
2014,10,05,08,23,15.40
2014,10,05,08,24,15.40
2014,10,05,08,25,15.40
2014,10,05,08,26,15.40
2014,10,05,08,27,15.40
2014,10,05,08,28,15.40
2014,10,05,08,29,15.50
2014,10,05,08,30,15.50
2014,10,05,08,31,15.50
2014,10,05,08,32,15.50
2014,10,05,08,33,15.50
2014,10,05,08,34,15.60
2014,10,05,08,35,15.60
2014,10,05,08,36,15.60
2014,10,05,08,37,15.60
2014,10,05,08,38,15.60
2014,10,05,08,39,15.60
2014,10,05,08,40,15.70
2014,10,05,08,41,15.70
2014,10,05,08,42,15.70
2014,10,05,08,43,15.70
2014,10,05,08,44,15.70
2014,10,05,08,45,15.80
2014,10,05,08,46,15.80
2014,10,05,08,47,15.80
2014,10,05,08,48,15.80
2014,10,05,08,49,15.80
2014,10,05,08,50,15.80
2014,10,05,08,51,15.80
2014,10,05,08,52,15.80
2014,10,05,08,53,15.80
2014,10,05,08,54,15.90
2014,10,05,08,55,15.80
2014,10,05,08,56,15.90
2014,10,05,08,57,15.90
2014,10,05,08,58,15.80
2014,10,05,08,59,15.90
2014,10,05,09,00,15.90
2014,10,05,09,01,15.90
2014,10,05,09,02,15.90
2014,10,05,09,03,15.90
2014,10,05,09,04,15.90
2014,10,05,09,05,15.90
2014,10,05,09,06,15.90
2014,10,05,09,07,15.90
2014,10,05,09,08,16.00
2014,10,05,09,09,16.00
2014,10,05,09,10,16.00
2014,10,05,09,11,16.10
2014,10,05,09,12,16.10
2014,10,05,09,13,16.10
2014,10,05,09,14,16.10
2014,10,05,09,15,16.10
2014,10,05,09,16,16.20
2014,10,05,09,17,16.20
2014,10,05,09,18,16.20
2014,10,05,09,19,16.30
2014,10,05,09,20,16.30
2014,10,05,09,21,16.30
2014,10,05,09,22,16.40
2014,10,05,09,23,16.40
2014,10,05,09,24,16.40
2014,10,05,09,25,16.40
2014,10,05,09,26,16.50
2014,10,05,09,27,16.50
2014,10,05,09,28,16.60
2014,10,05,09,29,16.60
2014,10,05,09,30,16.60
2014,10,05,09,31,16.70
2014,10,05,09,32,16.70
2014,10,05,09,33,16.70
2014,10,05,09,34,16.70
2014,10,05,09,35,16.80
2014,10,05,09,36,16.80
2014,10,05,09,37,16.80
2014,10,05,09,38,16.80
2014,10,05,09,39,16.90
2014,10,05,09,40,16.90
2014,10,05,09,41,16.90
2014,10,05,09,42,17.00
2014,10,05,09,43,17.00
2014,10,05,09,44,17.10
2014,10,05,09,45,17.10
2014,10,05,09,46,17.10
2014,10,05,09,47,17.10
2014,10,05,09,48,17.20
2014,10,05,09,49,17.20
2014,10,05,09,50,17.20
2014,10,05,09,51,17.20
2014,10,05,09,52,17.20
2014,10,05,09,53,17.20
2014,10,05,09,54,17.20
2014,10,05,09,55,17.30
2014,10,05,09,56,17.30
2014,10,05,09,57,17.30
2014,10,05,09,58,17.30
2014,10,05,09,59,17.30
2014,10,05,10,00,17.30
2014,10,05,10,01,17.30
2014,10,05,10,02,17.30
2014,10,05,10,03,17.40
2014,10,05,10,04,17.40
2014,10,05,10,05,17.40
2014,10,05,10,06,17.40
2014,10,05,10,07,17.50
2014,10,05,10,08,17.50
2014,10,05,10,09,17.60
2014,10,05,10,10,17.60
2014,10,05,10,11,17.60
2014,10,05,10,12,17.70
2014,10,05,10,13,17.70
2014,10,05,10,14,17.70
2014,10,05,10,15,17.70
2014,10,05,10,16,17.80
2014,10,05,10,17,17.80
2014,10,05,10,18,17.80
2014,10,05,10,19,17.90
2014,10,05,10,20,17.90
2014,10,05,10,21,18.00
2014,10,05,10,22,18.00
2014,10,05,10,23,18.10
2014,10,05,10,24,18.10
2014,10,05,10,25,18.10
2014,10,05,10,26,18.20
2014,10,05,10,27,18.20
2014,10,05,10,28,18.20
2014,10,05,10,29,18.20
2014,10,05,10,30,18.30
2014,10,05,10,31,18.30
2014,10,05,10,32,18.30
2014,10,05,10,33,18.30
2014,10,05,10,34,18.30
2014,10,05,10,35,18.30
2014,10,05,10,36,18.30
2014,10,05,10,37,18.30
2014,10,05,10,38,18.30
2014,10,05,10,39,18.30
2014,10,05,10,40,18.30
2014,10,05,10,41,18.30
2014,10,05,10,42,18.30
2014,10,05,10,43,18.30
2014,10,05,10,44,18.30
2014,10,05,10,45,18.20
2014,10,05,10,46,18.20
2014,10,05,10,47,18.20
2014,10,05,10,48,18.10
2014,10,05,10,49,18.10
2014,10,05,10,50,18.10
2014,10,05,10,51,18.10
2014,10,05,10,52,18.00
2014,10,05,10,53,18.00
2014,10,05,10,54,18.00
2014,10,05,10,55,18.00
2014,10,05,10,56,18.00
2014,10,05,10,57,18.00
2014,10,05,10,58,17.90
2014,10,05,10,59,18.00
2014,10,05,11,00,18.00
2014,10,05,11,01,18.00
2014,10,05,11,02,18.00
2014,10,05,11,03,18.00
2014,10,05,11,04,18.10
2014,10,05,11,05,18.10
2014,10,05,11,06,18.10
2014,10,05,11,07,18.10
2014,10,05,11,08,18.20
2014,10,05,11,09,18.20
2014,10,05,11,10,18.20
2014,10,05,11,11,18.20
2014,10,05,11,12,18.20
2014,10,05,11,13,18.30
2014,10,05,11,14,18.30
2014,10,05,11,15,18.30
2014,10,05,11,16,18.30
2014,10,05,11,17,18.30
2014,10,05,11,18,18.40
2014,10,05,11,19,18.40
2014,10,05,11,20,18.40
2014,10,05,11,21,18.40
2014,10,05,11,22,18.30
2014,10,05,11,23,18.30
2014,10,05,11,24,18.30
2014,10,05,11,25,18.20
2014,10,05,11,26,18.20
2014,10,05,11,27,18.20
2014,10,05,11,28,18.20
2014,10,05,11,29,18.20
2014,10,05,11,30,18.20
2014,10,05,11,31,18.20
2014,10,05,11,32,18.20
2014,10,05,11,33,18.30
2014,10,05,11,34,18.30
2014,10,05,11,35,18.30
2014,10,05,11,36,18.30
2014,10,05,11,37,18.40
2014,10,05,11,38,18.40
2014,10,05,11,39,18.40
2014,10,05,11,40,18.40
2014,10,05,11,41,18.50
2014,10,05,11,42,18.50
2014,10,05,11,43,18.50
2014,10,05,11,44,18.50
2014,10,05,11,45,18.60
2014,10,05,11,46,18.60
2014,10,05,11,47,18.60
2014,10,05,11,48,18.60
2014,10,05,11,49,18.60
2014,10,05,11,50,18.60
2014,10,05,11,51,18.60
2014,10,05,11,52,18.50
2014,10,05,11,53,18.50
2014,10,05,11,54,18.50
2014,10,05,11,55,18.60
2014,10,05,11,56,18.60
2014,10,05,11,57,18.60
2014,10,05,11,58,18.60
2014,10,05,11,59,18.60
2014,10,05,12,00,18.60
2014,10,05,12,01,18.70
2014,10,05,12,02,18.70
2014,10,05,12,03,18.70
2014,10,05,12,04,18.80
2014,10,05,12,05,18.70
2014,10,05,12,06,18.70
2014,10,05,12,07,18.60
2014,10,05,12,08,18.60
2014,10,05,12,09,18.60
2014,10,05,12,10,18.60
2014,10,05,12,11,18.60
2014,10,05,12,12,18.60
2014,10,05,12,13,18.70
2014,10,05,12,14,18.70
2014,10,05,12,15,18.80
2014,10,05,12,16,18.80
2014,10,05,12,17,18.90
2014,10,05,12,18,18.90
2014,10,05,12,19,19.00
2014,10,05,12,20,19.10
2014,10,05,12,21,19.20
2014,10,05,12,22,19.20
2014,10,05,12,23,19.20
2014,10,05,12,24,19.20
2014,10,05,12,25,19.20
2014,10,05,12,26,19.20
2014,10,05,12,27,19.30
2014,10,05,12,28,19.30
2014,10,05,12,29,19.40
2014,10,05,12,30,19.50
2014,10,05,12,31,19.50
2014,10,05,12,32,19.50
2014,10,05,12,33,19.50
2014,10,05,12,34,19.40
2014,10,05,12,35,19.40
2014,10,05,12,36,19.40
2014,10,05,12,37,19.40
2014,10,05,12,38,19.50
2014,10,05,12,39,19.60
2014,10,05,12,40,19.70
2014,10,05,12,41,19.80
2014,10,05,12,42,19.80
2014,10,05,12,43,19.90
2014,10,05,12,44,19.90
2014,10,05,12,45,20.00
2014,10,05,12,46,20.10
2014,10,05,12,47,20.20
2014,10,05,12,48,20.30
2014,10,05,12,49,20.30
2014,10,05,12,50,20.40
2014,10,05,12,51,20.40
2014,10,05,12,52,20.50
2014,10,05,12,53,20.50
2014,10,05,12,54,20.40
2014,10,05,12,55,20.40
2014,10,05,12,56,20.50
2014,10,05,12,57,20.50
2014,10,05,12,58,20.50
2014,10,05,12,59,20.60
2014,10,05,13,00,20.60
2014,10,05,13,01,20.60
2014,10,05,13,02,20.70
2014,10,05,13,03,20.70
2014,10,05,13,04,20.70
2014,10,05,13,05,20.70
2014,10,05,13,06,20.70
2014,10,05,13,07,20.70
2014,10,05,13,08,20.70
2014,10,05,13,09,20.70
2014,10,05,13,10,20.80
2014,10,05,13,11,20.80
2014,10,05,13,12,20.80
2014,10,05,13,13,20.80
2014,10,05,13,14,20.80
2014,10,05,13,15,20.80
2014,10,05,13,16,20.70
2014,10,05,13,17,20.50
2014,10,05,13,18,20.40
2014,10,05,13,19,20.40
2014,10,05,13,20,20.40
2014,10,05,13,21,20.40
2014,10,05,13,22,20.40
2014,10,05,13,23,20.40
2014,10,05,13,24,20.40
2014,10,05,13,25,20.50
2014,10,05,13,26,20.50
2014,10,05,13,27,20.50
2014,10,05,13,28,20.50
2014,10,05,13,29,20.50
2014,10,05,13,30,20.40
2014,10,05,13,31,20.40
2014,10,05,13,32,20.40
2014,10,05,13,33,20.30
2014,10,05,13,34,20.30
2014,10,05,13,35,20.30
2014,10,05,13,36,20.30
2014,10,05,13,37,20.30
2014,10,05,13,38,20.30
2014,10,05,13,39,20.30
2014,10,05,13,40,20.30
2014,10,05,13,41,20.30
2014,10,05,13,42,20.30
2014,10,05,13,43,20.20
2014,10,05,13,44,20.20
2014,10,05,13,45,20.20
2014,10,05,13,46,20.10
2014,10,05,13,47,20.10
2014,10,05,13,48,20.10
2014,10,05,13,49,20.10
2014,10,05,13,50,20.00
2014,10,05,13,51,20.00
2014,10,05,13,52,20.00
2014,10,05,13,53,19.90
2014,10,05,13,54,19.80
2014,10,05,13,55,19.80
2014,10,05,13,56,19.80
2014,10,05,13,57,19.80
2014,10,05,13,58,19.90
2014,10,05,13,59,19.90
2014,10,05,14,00,20.00
2014,10,05,14,01,19.90
2014,10,05,14,02,19.90
2014,10,05,14,03,19.80
2014,10,05,14,04,19.80
2014,10,05,14,05,19.80
2014,10,05,14,06,19.70
2014,10,05,14,07,19.70
2014,10,05,14,08,19.60
2014,10,05,14,09,19.50
2014,10,05,14,10,19.50
2014,10,05,14,11,19.50
2014,10,05,14,12,19.50
2014,10,05,14,13,19.40
2014,10,05,14,14,19.40
2014,10,05,14,15,19.40
2014,10,05,14,16,19.50
2014,10,05,14,17,19.60
2014,10,05,14,18,19.50
2014,10,05,14,19,19.50
2014,10,05,14,20,19.50
2014,10,05,14,21,19.50
2014,10,05,14,22,19.50
2014,10,05,14,23,19.50
2014,10,05,14,24,19.40
2014,10,05,14,25,19.40
2014,10,05,14,26,19.40
2014,10,05,14,27,19.50
2014,10,05,14,28,19.60
2014,10,05,14,29,19.60
2014,10,05,14,30,19.60
2014,10,05,14,31,19.60
2014,10,05,14,32,19.60
2014,10,05,14,33,19.60
2014,10,05,14,34,19.70
2014,10,05,14,35,19.70
2014,10,05,14,36,19.80
2014,10,05,14,37,19.80
2014,10,05,14,38,19.90
2014,10,05,14,39,19.90
2014,10,05,14,40,20.00
2014,10,05,14,41,20.10
2014,10,05,14,42,20.20
2014,10,05,14,43,20.30
2014,10,05,14,44,20.30
2014,10,05,14,45,20.40
2014,10,05,14,46,20.40
2014,10,05,14,47,20.40
2014,10,05,14,48,20.40
2014,10,05,14,49,20.40
2014,10,05,14,50,20.40
2014,10,05,14,51,20.40
2014,10,05,14,52,20.40
2014,10,05,14,53,20.40
2014,10,05,14,54,20.40
2014,10,05,14,55,20.40
2014,10,05,14,56,20.40
2014,10,05,14,57,20.40
2014,10,05,14,58,20.30
2014,10,05,14,59,20.30
2014,10,05,15,00,20.30
2014,10,05,15,01,20.30
2014,10,05,15,02,20.30
2014,10,05,15,03,20.30
2014,10,05,15,04,20.20
2014,10,05,15,05,20.20
2014,10,05,15,06,20.20
2014,10,05,15,07,20.20
2014,10,05,15,08,20.10
2014,10,05,15,09,20.10
2014,10,05,15,10,20.00
2014,10,05,15,11,20.00
2014,10,05,15,12,20.00
2014,10,05,15,13,19.90
2014,10,05,15,14,19.90
2014,10,05,15,15,19.90
2014,10,05,15,16,19.90
2014,10,05,15,17,19.90
2014,10,05,15,18,19.80
2014,10,05,15,19,19.80
2014,10,05,15,20,19.80
2014,10,05,15,21,19.80
2014,10,05,15,22,19.80
2014,10,05,15,23,19.80
2014,10,05,15,24,19.90
2014,10,05,15,25,19.90
2014,10,05,15,26,19.90
2014,10,05,15,27,19.90
2014,10,05,15,28,19.90
2014,10,05,15,29,20.00
2014,10,05,15,30,20.00
2014,10,05,15,31,19.90
2014,10,05,15,32,19.90
2014,10,05,15,33,19.90
2014,10,05,15,34,19.90
2014,10,05,15,35,19.90
2014,10,05,15,36,19.80
2014,10,05,15,37,19.80
2014,10,05,15,38,19.80
2014,10,05,15,39,19.80
2014,10,05,15,40,19.90
2014,10,05,15,41,19.90
2014,10,05,15,42,19.90
2014,10,05,15,43,19.90
2014,10,05,15,44,19.90
2014,10,05,15,45,19.90
2014,10,05,15,46,19.90
2014,10,05,15,47,19.90
2014,10,05,15,48,20.00
2014,10,05,15,49,20.00
2014,10,05,15,50,20.00
2014,10,05,15,51,20.10
2014,10,05,15,52,20.10
2014,10,05,15,53,20.10
2014,10,05,15,54,20.10
2014,10,05,15,55,20.00
2014,10,05,15,56,20.00
2014,10,05,15,57,20.10
2014,10,05,15,58,20.10
2014,10,05,15,59,20.10
2014,10,05,16,00,20.10
2014,10,05,16,01,20.10
2014,10,05,16,02,20.10
2014,10,05,16,03,20.10
2014,10,05,16,04,20.10
2014,10,05,16,05,20.20
2014,10,05,16,06,20.20
2014,10,05,16,07,20.20
2014,10,05,16,08,20.20
2014,10,05,16,09,20.20
2014,10,05,16,10,20.20
2014,10,05,16,11,20.10
2014,10,05,16,12,20.10
2014,10,05,16,13,20.10
2014,10,05,16,14,20.10
2014,10,05,16,15,20.10
2014,10,05,16,16,20.10
2014,10,05,16,17,20.10
2014,10,05,16,18,20.10
2014,10,05,16,19,20.00
2014,10,05,16,20,20.00
2014,10,05,16,21,19.90
2014,10,05,16,22,19.90
2014,10,05,16,23,19.80
2014,10,05,16,24,19.70
2014,10,05,16,25,19.60
2014,10,05,16,26,19.60
2014,10,05,16,27,19.50
2014,10,05,16,28,19.50
2014,10,05,16,29,19.40
2014,10,05,16,30,19.40
2014,10,05,16,31,19.40
2014,10,05,16,32,19.40
2014,10,05,16,33,19.40
2014,10,05,16,34,19.40
2014,10,05,16,35,19.40
2014,10,05,16,36,19.40
2014,10,05,16,37,19.40
2014,10,05,16,38,19.40
2014,10,05,16,39,19.40
2014,10,05,16,40,19.40
2014,10,05,16,41,19.40
2014,10,05,16,42,19.30
2014,10,05,16,43,19.30
2014,10,05,16,44,19.30
2014,10,05,16,45,19.30
2014,10,05,16,46,19.30
2014,10,05,16,47,19.30
2014,10,05,16,48,19.30
2014,10,05,16,49,19.30
2014,10,05,16,50,19.30
2014,10,05,16,51,19.30
2014,10,05,16,52,19.30
2014,10,05,16,53,19.30
2014,10,05,16,54,19.30
2014,10,05,16,55,19.30
2014,10,05,16,56,19.30
2014,10,05,16,57,19.30
2014,10,05,16,58,19.30
2014,10,05,16,59,19.40
2014,10,05,17,00,19.40
2014,10,05,17,01,19.40
2014,10,05,17,02,19.40
2014,10,05,17,03,19.50
2014,10,05,17,04,19.50
2014,10,05,17,05,19.50
2014,10,05,17,06,19.60
2014,10,05,17,07,19.60
2014,10,05,17,08,19.60
2014,10,05,17,09,19.60
2014,10,05,17,10,19.60
2014,10,05,17,11,19.60
2014,10,05,17,12,19.70
2014,10,05,17,13,19.70
2014,10,05,17,14,19.70
2014,10,05,17,15,19.70
2014,10,05,17,16,19.60
2014,10,05,17,17,19.60
2014,10,05,17,18,19.60
2014,10,05,17,19,19.60